Location: Champignolles
(47.0543°N, 4.5663°E)
Time: 18:24:45
(UTC+00:00)

USA 238 DEB - Visible Passes

Search period start: 16 April 2021 00:00
Search period end: 26 April 2021 00:00
Orbit: 995 x 1217 km, 63.4° (Epoch: 11 April)

Date Brightness Start Highest point End Pass type
(mag) Time Alt. Az. Time Alt. Az. Time Alt. Az.
16 Apr 5.8 20:10:33 10° WNW 20:16:06 24° WSW 20:21:46 10° SSW visible
17 Apr 5.3 19:25:08 10° NW 19:31:37 36° WSW 19:38:20 10° S visible
18 Apr 6.5 20:35:38 10° W 20:36:32 10° WSW 20:37:26 10° WSW visible
19 Apr 6.2 19:47:40 10° WNW 19:52:17 18° WSW 19:56:59 10° SW visible
20 Apr 5.8 19:01:54 10° WNW 19:07:53 28° WSW 19:14:03 10° SSW visible
22 Apr 6.4 19:25:18 10° WNW 19:28:26 13° WSW 19:31:36 10° SW visible
